Location: ???????
(38.3360°N, 23.6977°E)
Time: 20:47:32
(UTC+00:00)

COSMO-SKYMED 1 - Pass Details

Date: 17 November 2025
Orbit: 579 x 581 km, 97.9° (Epoch: 11 December)

Event Time Altitude Azimuth Distance (km) Brightness Sun altitude
Exits shadow 15:41:31 - 40° (NE) 2,405 5.1 -6.4°
Reaches altitude 10° 15:43:17 10° 56° (NE) 1,898 4.4 -6.7°
Maximum altitude 15:45:45 15° 93° (E) 1,572 4.1 -7.1°
Drops below altitude 10° 15:48:12 10° 130° (SE) 1,888 4.7 -7.6°
Sets 15:51:07 0° 153° (SSE) 2,781 5.8 -8.1°
